When you browse on this site, cookies collect data to enhance your experience and personalize the content and advertising you see.
Visit our Privacy Policy to learn more. By continuing to use the site, you agree to this use of cookies and data.
  • In Hungary
  • List of Countries
  • For 7 days
  • Water Temperature
  • Satellite Maps
  • Weather Map
  • News
  • Weather Widgets
  • user-avatar
    Login

    Hourly Weather Pernik

    Today, 10 December, Monday

    Time Temperature Precipitation Wind Pressure Humidity
    00:00 +1°C° 0 mm 1 mps 683 mmHg 79%
    01:00 +1°C° 0 mm 1 mps 682 mmHg 79%
    02:00 +2°C° 0 mm 1 mps 682 mmHg 78%
    03:00 +2°C° 0.1 mm 1 mps 682 mmHg 78%
    04:00 +2°C° 0.1 mm 1 mps 682 mmHg 79%
    05:00 +1°C° 0.1 mm 0 mps 681 mmHg 80%
    06:00 +2°C° 0.7 mm 1 mps 682 mmHg 82%
    07:00 +2°C° 0.7 mm 1 mps 682 mmHg 83%
    08:00 +2°C° 0.7 mm 1 mps 682 mmHg 85%
    09:00 +2°C° 0.8 mm 1 mps 682 mmHg 87%
    10:00 +3°C° 0.8 mm 1 mps 683 mmHg 88%
    11:00 +2°C° 0.8 mm 2 mps 683 mmHg 89%
    12:00 +2°C° 0.2 mm 2 mps 683 mmHg 89%
    13:00 +3°C° 0.2 mm 2 mps 683 mmHg 88%
    14:00 +3°C° 0.2 mm 2 mps 683 mmHg 88%
    15:00 +2°C° 0.1 mm 2 mps 684 mmHg 89%
    16:00 +2°C° 0.1 mm 2 mps 684 mmHg 90%
    17:00 +1°C° 0.1 mm 2 mps 684 mmHg 91%
    18:00 0°C° 0.1 mm 3 mps 684 mmHg 90%
    19:00 0°C° 0.1 mm 3 mps 684 mmHg 90%
    20:00 -1°C° 0.1 mm 3 mps 685 mmHg 89%
    21:00 -1°C° 0 mm 3 mps 685 mmHg 89%
    22:00 -2°C° 0 mm 3 mps 685 mmHg 89%
    23:00 -2°C° 0 mm 3 mps 685 mmHg 88%

    Tomorrow, 11 December, Tuesday

    Time Temperature Precipitation Wind Pressure Humidity
    00:00 -3°C° 0 mm 2 mps 685 mmHg 89%
    01:00 -3°C° 0 mm 2 mps 686 mmHg 89%
    02:00 -4°C° 0 mm 2 mps 686 mmHg 89%
    03:00 -4°C° 0 mm 2 mps 686 mmHg 89%
    04:00 -4°C° 0 mm 2 mps 686 mmHg 89%
    05:00 -4°C° 0 mm 2 mps 686 mmHg 89%
    06:00 -4°C° 0 mm 2 mps 686 mmHg 88%
    07:00 -4°C° 0 mm 2 mps 686 mmHg 88%
    08:00 -4°C° 0 mm 2 mps 687 mmHg 88%
    09:00 -3°C° 0 mm 2 mps 687 mmHg 83%
    10:00 -2°C° 0 mm 3 mps 688 mmHg 77%
    11:00 -1°C° 0 mm 3 mps 688 mmHg 72%
    12:00 -1°C° 0 mm 3 mps 688 mmHg 71%
    13:00 -1°C° 0 mm 3 mps 688 mmHg 69%
    14:00 -1°C° 0 mm 3 mps 688 mmHg 68%
    15:00 -2°C° 0 mm 2 mps 688 mmHg 72%
    16:00 -3°C° 0 mm 2 mps 688 mmHg 76%
    17:00 -4°C° 0 mm 2 mps 688 mmHg 80%
    18:00 -2°C° 0 mm 1 mps 688 mmHg 81%
    19:00 -3°C° 0 mm 1 mps 688 mmHg 82%
    20:00 -3°C° 0 mm 1 mps 688 mmHg 83%
    21:00 -4°C° 0 mm 1 mps 689 mmHg 83%
    22:00 -4°C° 0 mm 1 mps 689 mmHg 82%
    23:00 -4°C° 0 mm 1 mps 689 mmHg 82%

    Day after tomorrow, 12 December, Wednesday

    Time Temperature Precipitation Wind Pressure Humidity
    00:00 -4°C° 0 mm 1 mps 689 mmHg 82%
    01:00 -4°C° 0 mm 1 mps 689 mmHg 82%
    02:00 -4°C° 0 mm 1 mps 689 mmHg 81%
    03:00 -4°C° 0 mm 1 mps 689 mmHg 82%
    04:00 -4°C° 0 mm 1 mps 689 mmHg 82%
    05:00 -4°C° 0 mm 1 mps 689 mmHg 83%
    06:00 -4°C° 0 mm 1 mps 689 mmHg 83%
    07:00 -4°C° 0 mm 1 mps 690 mmHg 83%
    08:00 -4°C° 0 mm 1 mps 690 mmHg 84%
    09:00 -3°C° 0 mm 1 mps 690 mmHg 78%
    10:00 -3°C° 0 mm 2 mps 691 mmHg 73%
    11:00 -2°C° 0 mm 2 mps 691 mmHg 68%
    12:00 -1°C° 0 mm 2 mps 691 mmHg 66%
    13:00 -1°C° 0 mm 2 mps 691 mmHg 63%
    14:00 +1°C° 0 mm 2 mps 690 mmHg 61%
    15:00 -1°C° 0 mm 2 mps 690 mmHg 66%
    16:00 -3°C° 0 mm 2 mps 690 mmHg 70%
    17:00 -2°C° 0 mm 1 mps 690 mmHg 75%
    18:00 -2°C° 0 mm 1 mps 690 mmHg 75%
    19:00 -3°C° 0 mm 1 mps 690 mmHg 75%
    20:00 -3°C° 0 mm 1 mps 691 mmHg 74%
    21:00 -3°C° 0 mm 1 mps 691 mmHg 73%
    22:00 -3°C° 0 mm 1 mps 691 mmHg 72%
    23:00 -3°C° 0 mm 1 mps 691 mmHg 72%

    13 December, Thursday

    Time Temperature Precipitation Wind Pressure Humidity
    00:00 -3°C° 0 mm 1 mps 691 mmHg 71%
    01:00 -3°C° 0 mm 1 mps 690 mmHg 70%
    02:00 -3°C° 0 mm 1 mps 690 mmHg 69%
    03:00 -3°C° 0 mm 1 mps 690 mmHg 68%
    04:00 -3°C° 0 mm 1 mps 690 mmHg 67%
    05:00 -3°C° 0 mm 1 mps 690 mmHg 65%
    06:00 -3°C° 0 mm 1 mps 690 mmHg 65%
    07:00 -2°C° 0 mm 1 mps 690 mmHg 64%
    08:00 -2°C° 0 mm 1 mps 690 mmHg 63%
    09:00 -1°C° 0 mm 1 mps 690 mmHg 61%
    10:00 0°C° 0 mm 1 mps 690 mmHg 59%
    11:00 +1°C° 0 mm 1 mps 691 mmHg 58%
    12:00 +2°C° 0 mm 1 mps 690 mmHg 60%
    13:00 +2°C° 0 mm 1 mps 690 mmHg 62%
    14:00 +3°C° 0 mm 1 mps 690 mmHg 63%
    15:00 +2°C° 0 mm 1 mps 689 mmHg 68%
    16:00 +1°C° 0 mm 1 mps 689 mmHg 74%
    17:00 0°C° 0 mm 1 mps 689 mmHg 79%
    18:00 0°C° 0 mm 1 mps 689 mmHg 79%
    19:00 0°C° 0 mm 1 mps 689 mmHg 80%
    20:00 0°C° 0 mm 1 mps 689 mmHg 80%
    21:00 0°C° 0 mm 1 mps 689 mmHg 81%
    22:00 0°C° 0 mm 1 mps 690 mmHg 81%
    23:00 0°C° 0 mm 1 mps 690 mmHg 81%

    14 December, Friday

    Time Temperature Precipitation Wind Pressure Humidity
    00:00 0°C° 0 mm 1 mps 690 mmHg 81%
    01:00 0°C° 0 mm 1 mps 690 mmHg 82%
    02:00 0°C° 0 mm 1 mps 690 mmHg 82%
    03:00 0°C° 0 mm 1 mps 690 mmHg 82%
    04:00 0°C° 0 mm 1 mps 690 mmHg 82%
    05:00 -1°C° 0 mm 1 mps 690 mmHg 82%
    06:00 0°C° 0 mm 1 mps 690 mmHg 82%
    07:00 0°C° 0 mm 1 mps 691 mmHg 83%
    08:00 0°C° 0 mm 1 mps 691 mmHg 83%
    09:00 +2°C° 0 mm 1 mps 692 mmHg 80%
    10:00 +3°C° 0 mm 1 mps 692 mmHg 77%
    11:00 +5°C° 0 mm 1 mps 693 mmHg 73%
    12:00 +5°C° 0 mm 1 mps 693 mmHg 73%
    13:00 +5°C° 0 mm 0 mps 693 mmHg 73%
    14:00 +5°C° 0 mm 0 mps 693 mmHg 73%
    15:00 +4°C° 0 mm 0 mps 693 mmHg 77%
    16:00 +3°C° 0 mm 0 mps 693 mmHg 81%
    17:00 +1°C° 0 mm 0 mps 693 mmHg 85%
    18:00 +2°C° 0 mm 1 mps 693 mmHg 86%
    19:00 +2°C° 0 mm 1 mps 694 mmHg 86%
    20:00 +2°C° 0 mm 1 mps 694 mmHg 86%
    21:00 +1°C° 0 mm 1 mps 694 mmHg 86%
    22:00 +1°C° 0 mm 1 mps 695 mmHg 86%
    23:00 +1°C° 0 mm 1 mps 695 mmHg 86%

    15 December, Saturday

    Time Temperature Precipitation Wind Pressure Humidity
    00:00 +1°C° 0 mm 1 mps 695 mmHg 86%
    01:00 +1°C° 0 mm 1 mps 695 mmHg 86%
    02:00 +1°C° 0 mm 1 mps 695 mmHg 86%
    03:00 +1°C° 0 mm 1 mps 695 mmHg 86%
    04:00 +1°C° 0 mm 1 mps 695 mmHg 86%
    05:00 +1°C° 0 mm 1 mps 695 mmHg 86%
    06:00 +1°C° 0 mm 1 mps 696 mmHg 87%
    07:00 +1°C° 0 mm 1 mps 696 mmHg 87%
    08:00 +1°C° 0 mm 1 mps 696 mmHg 87%
    09:00 +2°C° 0 mm 1 mps 697 mmHg 84%
    10:00 +3°C° 0 mm 1 mps 697 mmHg 81%
    11:00 +5°C° 0 mm 1 mps 698 mmHg 78%
    12:00 +5°C° 0 mm 1 mps 697 mmHg 78%
    13:00 +6°C° 0 mm 1 mps 697 mmHg 77%
    14:00 +6°C° 0 mm 1 mps 697 mmHg 77%
    15:00 +5°C° 0 mm 1 mps 697 mmHg 81%
    16:00 +4°C° 0 mm 1 mps 697 mmHg 85%
    17:00 +2°C° 0 mm 1 mps 697 mmHg 89%
    18:00 +2°C° 0.1 mm 1 mps 697 mmHg 90%
    19:00 +2°C° 0.1 mm 1 mps 697 mmHg 91%
    20:00 +1°C° 0.1 mm 1 mps 697 mmHg 92%
    21:00 +1°C° 0.2 mm 1 mps 697 mmHg 92%
    22:00 +1°C° 0.2 mm 1 mps 697 mmHg 92%
    23:00 +1°C° 0.2 mm 1 mps 697 mmHg 92%
    Show more